Regional Weather Roundup
Issued by NWS

Home | Current Version | Previous Version | Graphics & Text | Print | Product List | Glossary On
Versions: 1 2 3 4 5 6 7 8 9 10 11 12 13 14 15 16 17 18 19 20 21 22 23 24 25 26 27 28 29 30 31 32 33 34 35 36 37 38 39 40 41 42 43 44 45 46 47 48 49 50
407
ASUS45 KCYS 151510
RWRWY

WYOMING REGIONAL WEATHER ROUNDUP
NATIONAL WEATHER SERVICE CHEYENNE WY
800 AM MST FRI DEC 15 2017

NOTE:  "FAIR" INDICATES FEW OR NO CLOUDS BELOW 12,000 FEET
WITH NO SIGNIFICANT WEATHER AND/OR OBSTRUCTIONS TO VISIBILITY.

WYZ001-151600-
YELLOWSTONE NATIONAL PARK

CITY           SKY/WX    TMP DP  RH WIND       PRES   REMARKS
LK YELLOWSTONE   N/A     14  12  92 CALM      30.23F
W YELLOWSTONE  NOT AVBL

$$
WYZ002>013-054>058-071-098>099-151600-
NORTHERN WYOMING

CITY           SKY/WX    TMP DP  RH WIND       PRES   REMARKS
JACKSON        CLOUDY     7   3  85 SE3       30.29F
CODY           FAIR      46  10  23 W20G29    29.94F
GREYBULL       FAIR      16  13  88 SE3       30.02F
WORLAND        FAIR      13  10  88 S6        30.00F WCI   4
SHERIDAN       FAIR      25  15  66 S8        29.83F WCI  16
BUFFALO        FAIR      33   5  30 NW5       29.86F WCI  29
GILLETTE       FAIR      37  15  40 SW14      29.87S WCI  28
HULETT         FAIR      32  16  51 SW12      29.86F WCI  23
NEWCASTLE      FAIR      21  14  73 NE3       29.93S

$$
WYZ014>020-022>026-101>103-151600-
CENTRAL WYOMING

CITY           SKY/WX    TMP DP  RH WIND       PRES   REMARKS
BIG PINEY      FAIR      11   4  73 CALM      30.20S
PINEDALE       FAIR      19  12  73 NW10      30.19F WCI   8
DUBOIS         FAIR      28   7  40 N15G26    30.10F WCI  17
LANDER         FAIR      17  11  77 N6        30.04R WCI   9
RIVERTON       FAIR      14  11  87 N5        30.05S WCI   6
CASPER         FAIR      31  15  52 SW25G35   30.02R WCI  17
DOUGLAS        FAIR      25  16  68 NW3       29.94F

$$
WYZ021-027>030-104>119-151600-
SOUTHERN WYOMING

CITY           SKY/WX    TMP DP  RH WIND       PRES   REMARKS
EVANSTON       FAIR      22  15  75 SW13      30.27F WCI  10
FORT BRIDGER   FAIR      32   3  29 SW9       30.26F WCI  24
ROCK SPRINGS   FAIR      27  11  51 SW24      30.20F WCI  12
DIXON          FAIR      10   6  84 CALM      30.30R
RAWLINS          N/A     28  14  55 SW20G26   30.13F WCI  15
SARATOGA       FAIR      21   9  58 S14       30.19S WCI   8
LARAMIE        FAIR      24  11  57 SW15      30.06F WCI  11
CHEYENNE       FAIR      37  10  32 W24G35    29.97S WCI  26
TORRINGTON     FAIR      29  16  58 NW5       29.95S WCI  24
PINE BLUFFS    FAIR      19  12  73 S7        30.01S WCI  10

$$




USA.gov is the U.S. government's official web portal to all federal, state and local government web resources and services.